QPF
0.00 0.00 0.00 0.00 0.00 0.00 0.00 0.00 0.00 0.00 0.00 0.00 0.00 0.00 0.02 0.02 0.02 0.01 0.02 0.02 0.04 0.03 0.04 0.04 0.03 0.05 0.07 0.08 0.06 0.06 0.06 0.05 0.05 0.04 0.03 0.03 0.03 0.02 0.03 0.03 0.03 0.03 0.03 0.02
0.00 0.00 0.00 0.00 0.00 0.00 0.00 0.00 0.00 0.00 0.00 0.00 0.00 0.00 0.01 0.01 0.01 0.02 0.03 0.03 0.03 0.03 0.04 0.04 0.04 0.06 0.07 0.08 0.08 0.07 0.06 0.05 0.03 0.03 0.03 0.04 0.04 0.03 0.03 0.03 0.03 0.04 0.03 0.04
0.00 0.00 0.00 0.00 0.00 0.00 0.00 0.00 0.00 0.00 0.00 0.00 0.00 0.00 0.01 0.01 0.01 0.02 0.03 0.03 0.03 0.03 0.04 0.05 0.05 0.07 0.07 0.10 0.12 0.10 0.06 0.04 0.03 0.03 0.03 0.04 0.05 0.04 0.03 0.02 0.03 0.04 0.04 0.03
0.00 0.00 0.00 0.00 0.00 0.00 0.00 0.00 0.00 0.00 0.00 0.00 0.00 0.00 0.01 0.01 0.02 0.02 0.03 0.03 0.03 0.03 0.04 0.06 0.06 0.08 0.10 0.10 0.11 0.09 0.05 0.04 0.03 0.03 0.03 0.04 0.04 0.04 0.03 0.02 0.03 0.03 0.04 0.04
0.00 0.00 0.00 0.00 0.00 0.00 0.00 0.00 0.00 0.00 0.00 0.00 0.00 0.00 0.00 0.01 0.01 0.01 0.02 0.02 0.03 0.04 0.05 0.06 0.05 0.05 0.05 0.06 0.05 0.04 0.04 0.04 0.03 0.02 0.03 0.03 0.03 0.03 0.02 0.02 0.02 0.03 0.04 0.05
0.00 0.00 0.00 0.00 0.00 0.00 0.00 0.00 0.00 0.00 0.00 0.00 0.00 0.00 0.00 0.00 0.00 0.00 0.01 0.01 0.02 0.03 0.03 0.04 0.04 0.04 0.04 0.04 0.04 0.05 0.04 0.04 0.02 0.02 0.02 0.02 0.02 0.02 0.02 0.02 0.03 0.03 0.03 0.04
0.00 0.00 0.00 0.00 0.00 0.00 0.00 0.00 0.00 0.00 0.00 0.00 0.00 0.00 0.00 0.00 0.00 0.00 0.01 0.01 0.02 0.03 0.03 0.05 0.05 0.05 0.06 0.06 0.05 0.07 0.06 0.05 0.03 0.02 0.02 0.02 0.01 0.01 0.02 0.03 0.04 0.04 0.04 0.04
0.01 0.00 0.00 0.00 0.00 0.00 0.01 0.01 0.02 0.01 0.00 0.00 0.00 0.00 0.00 0.01 0.01 0.01 0.01 0.01 0.01 0.01 0.02 0.05 0.07 0.08 0.09 0.11 0.09 0.07 0.05 0.04 0.03 0.02 0.02 0.01 0.01 0.01 0.01 0.02 0.03 0.04 0.04 0.05
0.01 0.01 0.00 0.00 0.00 0.00 0.00 0.00 0.00 0.01 0.01 0.00 0.01 0.00 0.01 0.01 0.01 0.01 0.00 0.00 0.00 0.01 0.03 0.07 0.09 0.10 0.12 0.13 0.10 0.11 0.08 0.06 0.03 0.02 0.01 0.02 0.02 0.02 0.01 0.01 0.02 0.04 0.05 0.08
0.00 0.01 0.01 0.00 0.00 0.00 0.00 0.00 0.00 0.01 0.01 0.01 0.01 0.01 0.01 0.01 0.01 0.00 0.00 0.00 0.01 0.03 0.05 0.08 0.11 0.10 0.12 0.10 0.07 0.06 0.06 0.05 0.04 0.03 0.03 0.02 0.02 0.02 0.02 0.01 0.02 0.04 0.05 0.08
0.01 0.00 0.00 0.00 0.01 0.01 0.01 0.00 0.00 0.00 0.01 0.00 0.01 0.01 0.01 0.01 0.01 0.01 0.01 0.01 0.02 0.03 0.05 0.06 0.07 0.07 0.09 0.06 0.04 0.04 0.04 0.03 0.03 0.02 0.01 0.01 0.01 0.01 0.02 0.02 0.02 0.03 0.04 0.06
0.01 0.00 0.00 0.00 0.00 0.01 0.01 0.01 0.00 0.00 0.00 0.00 0.00 0.01 0.01 0.01 0.01 0.01 0.01 0.01 0.01 0.02 0.02 0.03 0.07 0.09 0.06 0.04 0.04 0.04 0.03 0.03 0.03 0.02 0.01 0.01 0.01 0.01 0.02 0.02 0.02 0.03 0.03 0.03
0.00 0.00 0.00 0.00 0.00 0.00 0.01 0.02 0.01 0.00 0.00 0.00 0.00 0.00 0.01 0.00 0.00 0.00 0.00 0.01 0.01 0.01 0.01 0.04 0.08 0.06 0.04 0.04 0.05 0.04 0.04 0.04 0.03 0.02 0.02 0.02 0.01 0.01 0.01 0.02 0.02 0.03 0.03 0.02
0.01 0.01 0.00 0.00 0.00 0.00 0.00 0.01 0.01 0.01 0.01 0.00 0.00 0.00 0.00 0.00 0.00 0.00 0.00 0.00 0.00 0.00 0.01 0.02 0.02 0.02 0.02 0.03 0.04 0.05 0.04 0.03 0.03 0.02 0.01 0.01 0.01 0.02 0.01 0.02 0.02 0.02 0.03 0.02
0.01 0.01 0.00 0.00 0.00 0.00 0.00 0.00 0.01 0.01 0.01 0.01 0.01 0.01 0.01 0.00 0.00 0.00 0.00 0.00 0.01 0.00 0.01 0.01 0.02 0.01 0.02 0.02 0.03 0.05 0.06 0.04 0.03 0.02 0.01 0.01 0.01 0.01 0.02 0.02 0.02 0.03 0.03 0.03
0.01 0.01 0.00 0.00 0.00 0.00 0.00 0.00 0.00 0.01 0.01 0.01 0.01 0.01 0.01 0.00 0.00 0.00 0.00 0.00 0.01 0.00 0.01 0.01 0.01 0.01 0.01 0.03 0.03 0.05 0.06 0.05 0.03 0.02 0.01 0.02 0.01 0.01 0.01 0.02 0.03 0.02 0.02 0.04
0.01 0.01 0.00 0.00 0.00 0.00 0.00 0.00 0.00 0.01 0.00 0.01 0.01 0.01 0.01 0.00 0.00 0.00 0.01 0.01 0.01 0.01 0.01 0.01 0.01 0.01 0.01 0.02 0.03 0.04 0.04 0.03 0.02 0.02 0.02 0.02 0.02 0.02 0.02 0.02 0.02 0.02 0.03 0.03
0.01 0.01 0.01 0.00 0.00 0.00 0.00 0.00 0.00 0.00 0.01 0.01 0.01 0.01 0.00 0.01 0.01 0.01 0.01 0.01 0.01 0.00 0.01 0.01 0.01 0.01 0.01 0.01 0.02 0.03 0.02 0.02 0.02 0.02 0.02 0.03 0.04 0.03 0.02 0.02 0.03 0.04 0.04 0.03
0.01 0.01 0.01 0.01 0.01 0.01 0.00 0.00 0.00 0.00 0.01 0.01 0.01 0.00 0.00 0.01 0.01 0.01 0.01 0.00 0.00 0.00 0.01 0.02 0.02 0.02 0.02 0.02 0.02 0.02 0.02 0.02 0.02 0.02 0.02 0.03 0.04 0.04 0.03 0.04 0.06 0.05 0.04 0.03
0.02 0.01 0.01 0.01 0.01 0.01 0.01 0.01 0.01 0.01 0.01 0.01 0.01 0.01 0.01 0.00 0.00 0.00 0.00 0.00 0.00 0.00 0.01 0.02 0.02 0.02 0.02 0.02 0.02 0.01 0.01 0.01 0.01 0.01 0.02 0.02 0.03 0.05 0.06 0.06 0.05 0.04 0.03 0.04
0.02 0.01 0.01 0.01 0.01 0.01 0.01 0.01 0.01 0.02 0.01 0.00 0.00 0.01 0.01 0.01 0.01 0.00 0.00 0.00 0.01 0.01 0.02 0.02 0.03 0.03 0.03 0.02 0.01 0.01 0.01 0.01 0.01 0.02 0.02 0.02 0.03 0.05 0.06 0.06 0.05 0.04 0.04 0.04
0.01 0.01 0.01 0.01 0.01 0.01 0.01 0.01 0.01 0.01 0.00 0.00 0.01 0.01 0.01 0.01 0.01 0.01 0.01 0.01 0.02 0.03 0.03 0.04 0.05 0.04 0.04 0.03 0.02 0.01 0.01 0.01 0.01 0.01 0.01 0.02 0.02 0.03 0.05 0.05 0.04 0.04 0.04 0.05
0.01 0.01 0.01 0.01 0.01 0.01 0.01 0.01 0.01 0.00 0.00 0.00 0.01 0.01 0.01 0.01 0.01 0.01 0.01 0.01 0.02 0.02 0.03 0.04 0.06 0.05 0.05 0.04 0.03 0.02 0.01 0.01 0.01 0.01 0.01 0.01 0.02 0.02 0.03 0.04 0.04 0.04 0.04 0.05
0.00 0.01 0.01 0.02 0.01 0.01 0.01 0.01 0.01 0.00 0.00 0.00 0.01 0.01 0.01 0.01 0.01 0.01 0.01 0.01 0.01 0.01 0.01 0.02 0.02 0.02 0.03 0.03 0.03 0.02 0.01 0.01 0.01 0.01 0.01 0.02 0.02 0.02 0.02 0.03 0.04 0.05 0.05 0.05
0.00 0.01 0.01 0.01 0.01 0.01 0.01 0.01 0.01 0.01 0.01 0.00 0.00 0.01 0.01 0.01 0.01 0.01 0.01 0.01 0.01 0.01 0.01 0.01 0.01 0.01 0.02 0.02 0.02 0.02 0.02 0.02 0.02 0.02 0.02 0.02 0.02 0.03 0.03 0.04 0.04 0.05 0.05 0.07
0.00 0.00 0.00 0.01 0.01 0.01 0.01 0.01 0.01 0.01 0.01 0.01 0.00 0.00 0.01 0.01 0.01 0.01 0.01 0.01 0.01 0.01 0.01 0.01 0.01 0.01 0.01 0.01 0.01 0.01 0.02 0.02 0.02 0.02 0.02 0.02 0.03 0.03 0.05 0.06 0.05 0.06 0.05 0.05
MSLP
1008.34 1009.10 1009.62 1009.89 1009.94 1009.86 1009.72 1009.59 1009.51 1009.48 1009.46 1009.38 1009.18 1008.81 1008.26 1007.57 1006.80 1006.07 1005.46 1005.04 1004.86 1004.90 1005.13 1005.45 1005.78 1006.06 1006.24 1006.33 1006.36 1006.39 1006.47 1006.65 1006.94 1007.30 1007.68 1008.00 1008.18 1008.16 1007.92 1007.49 1006.92 1006.32 1005.78 1005.40
1008.67 1009.30 1009.69 1009.86 1009.86 1009.77 1009.69 1009.68 1009.77 1009.92 1010.08 1010.17 1010.10 1009.82 1009.31 1008.62 1007.83 1007.04 1006.36 1005.87 1005.63 1005.63 1005.84 1006.17 1006.55 1006.89 1007.17 1007.35 1007.48 1007.58 1007.72 1007.91 1008.16 1008.44 1008.70 1008.86 1008.87 1008.68 1008.28 1007.71 1007.06 1006.40 1005.85 1005.48
1008.88 1009.37 1009.63 1009.70 1009.67 1009.62 1009.64 1009.77 1010.03 1010.36 1010.69 1010.92 1010.96 1010.75 1010.28 1009.58 1008.75 1007.90 1007.15 1006.60 1006.30 1006.27 1006.45 1006.79 1007.20 1007.60 1007.95 1008.22 1008.44 1008.62 1008.81 1009.03 1009.27 1009.49 1009.66 1009.71 1009.58 1009.26 1008.74 1008.09 1007.37 1006.69 1006.13 1005.78
1009.06 1009.38 1009.52 1009.54 1009.50 1009.52 1009.65 1009.93 1010.36 1010.86 1011.33 1011.67 1011.79 1011.62 1011.15 1010.42 1009.55 1008.64 1007.83 1007.22 1006.86 1006.77 1006.92 1007.24 1007.65 1008.07 1008.46 1008.80 1009.08 1009.34 1009.58 1009.83 1010.08 1010.29 1010.42 1010.41 1010.22 1009.84 1009.27 1008.58 1007.85 1007.16 1006.62 1006.28
1009.29 1009.46 1009.50 1009.47 1009.46 1009.56 1009.81 1010.24 1010.82 1011.45 1012.03 1012.45 1012.60 1012.44 1011.95 1011.18 1010.26 1009.30 1008.42 1007.74 1007.31 1007.16 1007.25 1007.51 1007.88 1008.29 1008.68 1009.03 1009.34 1009.64 1009.93 1010.22 1010.50 1010.74 1010.89 1010.89 1010.71 1010.34 1009.79 1009.12 1008.42 1007.78 1007.27 1006.96
1009.67 1009.70 1009.66 1009.61 1009.64 1009.82 1010.19 1010.75 1011.44 1012.17 1012.82 1013.27 1013.42 1013.24 1012.71 1011.90 1010.93 1009.91 1008.98 1008.23 1007.73 1007.49 1007.49 1007.67 1007.96 1008.29 1008.62 1008.94 1009.24 1009.54 1009.86 1010.20 1010.53 1010.82 1011.03 1011.10 1011.00 1010.70 1010.24 1009.66 1009.03 1008.46 1008.01 1007.74
1010.23 1010.16 1010.06 1010.01 1010.09 1010.34 1010.81 1011.46 1012.22 1013.00 1013.67 1014.11 1014.24 1014.01 1013.44 1012.59 1011.58 1010.52 1009.55 1008.75 1008.18 1007.85 1007.74 1007.80 1007.96 1008.18 1008.41 1008.64 1008.89 1009.16 1009.47 1009.83 1010.22 1010.58 1010.88 1011.06 1011.08 1010.91 1010.58 1010.13 1009.62 1009.14 1008.77 1008.56
1010.98 1010.83 1010.70 1010.66 1010.77 1011.09 1011.61 1012.31 1013.10 1013.88 1014.52 1014.92 1015.00 1014.73 1014.12 1013.25 1012.22 1011.16 1010.16 1009.33 1008.70 1008.29 1008.06 1007.99 1008.01 1008.07 1008.16 1008.27 1008.42 1008.63 1008.92 1009.28 1009.70 1010.13 1010.53 1010.83 1010.99 1010.98 1010.80 1010.50 1010.13 1009.77 1009.49 1009.35
1011.83 1011.65 1011.51 1011.49 1011.64 1011.98 1012.53 1013.23 1014.00 1014.73 1015.30 1015.64 1015.66 1015.34 1014.72 1013.85 1012.85 1011.81 1010.83 1009.99 1009.33 1008.85 1008.53 1008.32 1008.18 1008.09 1008.02 1007.99 1008.02 1008.13 1008.35 1008.69 1009.12 1009.61 1010.08 1010.50 1010.79 1010.93 1010.91 1010.77 1010.54 1010.31 1010.12 1010.05
1012.70 1012.52 1012.40 1012.41 1012.57 1012.93 1013.45 1014.10 1014.80 1015.44 1015.93 1016.19 1016.15 1015.81 1015.19 1014.37 1013.42 1012.45 1011.53 1010.73 1010.06 1009.54 1009.14 1008.82 1008.55 1008.30 1008.08 1007.90 1007.79 1007.80 1007.94 1008.23 1008.64 1009.14 1009.66 1010.15 1010.55 1010.82 1010.95 1010.95 1010.86 1010.75 1010.66 1010.66
1013.47 1013.34 1013.26 1013.30 1013.47 1013.80 1014.28 1014.85 1015.44 1015.97 1016.35 1016.52 1016.43 1016.09 1015.51 1014.76 1013.91 1013.05 1012.23 1011.50 1010.87 1010.35 1009.90 1009.50 1009.11 1008.74 1008.38 1008.07 1007.84 1007.73 1007.78 1007.99 1008.34 1008.82 1009.34 1009.87 1010.34 1010.70 1010.94 1011.06 1011.11 1011.11 1011.12 1011.19
1014.10 1014.04 1014.02 1014.08 1014.25 1014.54 1014.94 1015.40 1015.87 1016.27 1016.54 1016.64 1016.52 1016.19 1015.68 1015.04 1014.32 1013.59 1012.90 1012.27 1011.71 1011.21 1010.75 1010.30 1009.84 1009.37 1008.91 1008.49 1008.15 1007.93 1007.88 1007.99 1008.27 1008.68 1009.17 1009.69 1010.18 1010.59 1010.92 1011.14 1011.30 1011.41 1011.52 1011.66
1014.57 1014.59 1014.63 1014.72 1014.88 1015.11 1015.42 1015.76 1016.10 1016.38 1016.54 1016.57 1016.44 1016.15 1015.73 1015.21 1014.64 1014.07 1013.51 1013.00 1012.53 1012.08 1011.63 1011.16 1010.66 1010.14 1009.60 1009.10 1008.67 1008.36 1008.20 1008.21 1008.39 1008.70 1009.12 1009.59 1010.07 1010.51 1010.88 1011.19 1011.44 1011.65 1011.86 1012.10
1014.91 1015.01 1015.10 1015.21 1015.35 1015.52 1015.73 1015.96 1016.17 1016.33 1016.41 1016.39 1016.26 1016.03 1015.70 1015.31 1014.90 1014.47 1014.06 1013.66 1013.28 1012.89 1012.46 1012.00 1011.49 1010.93 1010.36 1009.80 1009.31 1008.92 1008.67 1008.57 1008.64 1008.84 1009.16 1009.56 1009.99 1010.42 1010.82 1011.20 1011.53 1011.85 1012.16 1012.48
1015.18 1015.34 1015.47 1015.58 1015.69 1015.80 1015.92 1016.03 1016.13 1016.20 1016.21 1016.16 1016.05 1015.87 1015.64 1015.37 1015.09 1014.80 1014.51 1014.22 1013.91 1013.57 1013.19 1012.74 1012.23 1011.67 1011.08 1010.50 1009.96 1009.51 1009.17 1008.98 1008.93 1009.02 1009.23 1009.53 1009.90 1010.30 1010.72 1011.14 1011.56 1011.97 1012.39 1012.81
1015.46 1015.65 1015.79 1015.88 1015.95 1015.99 1016.02 1016.04 1016.05 1016.03 1015.99 1015.93 1015.83 1015.71 1015.56 1015.40 1015.22 1015.04 1014.85 1014.63 1014.38 1014.09 1013.73 1013.30 1012.81 1012.26 1011.68 1011.09 1010.53 1010.03 1009.63 1009.35 1009.20 1009.18 1009.27 1009.48 1009.77 1010.14 1010.56 1011.02 1011.50 1012.00 1012.51 1013.02
1015.79 1015.97 1016.08 1016.14 1016.15 1016.12 1016.07 1016.01 1015.94 1015.87 1015.79 1015.71 1015.63 1015.55 1015.46 1015.37 1015.27 1015.16 1015.03 1014.86 1014.65 1014.38 1014.05 1013.64 1013.17 1012.64 1012.08 1011.50 1010.95 1010.43 1009.99 1009.64 1009.40 1009.28 1009.28 1009.39 1009.61 1009.93 1010.33 1010.81 1011.34 1011.91 1012.50 1013.09
1016.18 1016.31 1016.37 1016.36 1016.30 1016.20 1016.08 1015.95 1015.82 1015.70 1015.60 1015.51 1015.44 1015.38 1015.32 1015.27 1015.20 1015.12 1015.01 1014.86 1014.67 1014.41 1014.10 1013.71 1013.27 1012.78 1012.26 1011.71 1011.18 1010.67 1010.21 1009.82 1009.53 1009.33 1009.24 1009.26 1009.41 1009.68 1010.05 1010.52 1011.07 1011.67 1012.31 1012.95
1016.58 1016.63 1016.60 1016.52 1016.38 1016.22 1016.04 1015.85 1015.68 1015.53 1015.40 1015.30 1015.22 1015.15 1015.10 1015.04 1014.98 1014.89 1014.77 1014.62 1014.42 1014.17 1013.86 1013.50 1013.10 1012.66 1012.19 1011.71 1011.22 1010.74 1010.30 1009.90 1009.58 1009.33 1009.18 1009.13 1009.21 1009.41 1009.74 1010.17 1010.70 1011.29 1011.94 1012.59
1016.92 1016.87 1016.76 1016.59 1016.38 1016.15 1015.92 1015.70 1015.50 1015.32 1015.17 1015.05 1014.94 1014.85 1014.77 1014.68 1014.58 1014.46 1014.31 1014.13 1013.91 1013.66 1013.37 1013.05 1012.70 1012.32 1011.92 1011.51 1011.09 1010.67 1010.27 1009.90 1009.57 1009.30 1009.11 1009.01 1009.02 1009.15 1009.40 1009.77 1010.24 1010.78 1011.38 1012.00
1017.14 1016.98 1016.77 1016.53 1016.26 1015.99 1015.73 1015.48 1015.26 1015.07 1014.90 1014.74 1014.60 1014.47 1014.33 1014.19 1014.03 1013.86 1013.66 1013.44 1013.21 1012.95 1012.68 1012.40 1012.10 1011.80 1011.48 1011.16 1010.82 1010.49 1010.15 1009.82 1009.52 1009.25 1009.04 1008.90 1008.85 1008.90 1009.06 1009.33 1009.70 1010.15 1010.66 1011.21
1017.16 1016.91 1016.62 1016.32 1016.01 1015.72 1015.44 1015.20 1014.98 1014.77 1014.58 1014.40 1014.21 1014.02 1013.82 1013.61 1013.38 1013.14 1012.89 1012.64 1012.38 1012.13 1011.89 1011.64 1011.41 1011.18 1010.94 1010.71 1010.47 1010.21 1009.95 1009.68 1009.42 1009.17 1008.95 1008.78 1008.68 1008.65 1008.71 1008.86 1009.11 1009.43 1009.82 1010.26
1016.96 1016.63 1016.29 1015.95 1015.63 1015.34 1015.09 1014.86 1014.65 1014.45 1014.25 1014.04 1013.81 1013.56 1013.30 1013.01 1012.71 1012.42 1012.12 1011.83 1011.56 1011.31 1011.09 1010.89 1010.70 1010.54 1010.38 1010.22 1010.06 1009.88 1009.69 1009.48 1009.26 1009.04 1008.82 1008.63 1008.47 1008.37 1008.33 1008.36 1008.47 1008.66 1008.91 1009.22
1016.54 1016.17 1015.79 1015.45 1015.15 1014.90 1014.68 1014.49 1014.32 1014.14 1013.94 1013.71 1013.45 1013.15 1012.82 1012.48 1012.13 1011.78 1011.45 1011.14 1010.86 1010.62 1010.42 1010.25 1010.10 1009.98 1009.87 1009.76 1009.65 1009.53 1009.38 1009.22 1009.04 1008.84 1008.63 1008.42 1008.22 1008.05 1007.92 1007.84 1007.82 1007.87 1007.99 1008.19
1015.94 1015.54 1015.17 1014.86 1014.61 1014.41 1014.26 1014.13 1014.00 1013.85 1013.67 1013.44 1013.16 1012.84 1012.48 1012.10 1011.72 1011.35 1011.00 1010.69 1010.41 1010.18 1009.98 1009.83 1009.70 1009.59 1009.49 1009.40 1009.30 1009.20 1009.07 1008.93 1008.76 1008.57 1008.36 1008.13 1007.90 1007.68 1007.48 1007.31 1007.19 1007.13 1007.14 1007.24
1015.20 1014.81 1014.47 1014.21 1014.03 1013.91 1013.84 1013.78 1013.72 1013.62 1013.47 1013.26 1012.98 1012.66 1012.30 1011.92 1011.54 1011.18 1010.84 1010.54 1010.28 1010.06 1009.88 1009.72 1009.58 1009.45 1009.32 1009.20 1009.08 1008.94 1008.80 1008.64 1008.46 1008.26 1008.05 1007.81 1007.56 1007.31 1007.06 1006.83 1006.64 1006.51 1006.45 1006.48
Thickness
5752 5740 5733 5739 5743 5745 5742 5737 5734 5743 5757 5752 5745 5745 5754 5761 5762 5761 5760 5760 5759 5758 5759 5759 5759 5759 5757 5754 5751 5748 5746 5744 5742 5738 5736 5733 5731 5731 5730 5731 5730 5729 5727 5726
5735 5733 5745 5749 5746 5742 5737 5731 5732 5741 5752 5748 5740 5741 5750 5754 5756 5758 5756 5756 5755 5753 5752 5751 5752 5751 5750 5746 5744 5742 5740 5739 5738 5736 5733 5731 5729 5727 5727 5727 5727 5726 5725 5723
5732 5740 5751 5747 5742 5737 5735 5730 5733 5734 5741 5743 5737 5732 5739 5747 5751 5753 5753 5753 5752 5751 5748 5746 5745 5745 5744 5740 5737 5737 5735 5734 5733 5732 5729 5726 5724 5723 5721 5721 5722 5722 5721 5720
5733 5743 5747 5743 5739 5739 5728 5743 5740 5736 5725 5715 5725 5705 5726 5734 5738 5742 5744 5745 5745 5746 5745 5742 5741 5740 5738 5736 5733 5732 5730 5729 5729 5727 5725 5722 5719 5716 5717 5717 5718 5718 5717 5716
5731 5741 5740 5737 5741 5743 5738 5745 5738 5732 5720 5710 5712 5702 5710 5725 5727 5733 5738 5741 5741 5742 5741 5739 5738 5735 5733 5731 5728 5726 5725 5723 5722 5722 5720 5719 5716 5714 5714 5713 5713 5713 5713 5712
5734 5745 5745 5744 5750 5748 5744 5734 5724 5711 5703 5691 5703 5697 5701 5714 5724 5730 5735 5737 5737 5737 5736 5734 5732 5729 5726 5724 5722 5720 5719 5716 5716 5715 5715 5713 5711 5710 5708 5708 5708 5708 5708 5708
5723 5733 5743 5748 5740 5740 5733 5711 5690 5688 5677 5682 5700 5696 5700 5722 5728 5730 5731 5732 5732 5732 5730 5726 5724 5722 5719 5717 5715 5714 5714 5711 5710 5709 5708 5708 5707 5706 5704 5704 5703 5702 5702 5702
5704 5708 5732 5740 5735 5726 5722 5712 5687 5676 5672 5679 5693 5691 5706 5725 5729 5731 5730 5728 5727 5725 5723 5721 5719 5716 5714 5712 5710 5709 5707 5705 5704 5704 5703 5703 5702 5701 5700 5700 5699 5698 5698 5698
5700 5705 5731 5739 5740 5731 5715 5706 5707 5686 5680 5674 5680 5692 5708 5722 5723 5723 5722 5722 5720 5719 5717 5714 5712 5710 5707 5705 5704 5702 5700 5699 5699 5698 5698 5697 5697 5696 5695 5695 5695 5694 5694 5694
5711 5704 5720 5730 5732 5727 5721 5707 5691 5680 5668 5666 5677 5684 5690 5706 5711 5714 5715 5715 5714 5713 5711 5709 5706 5704 5703 5701 5698 5697 5694 5693 5693 5693 5692 5692 5691 5691 5690 5690 5689 5689 5689 5689
5712 5700 5706 5714 5711 5709 5708 5700 5687 5675 5675 5665 5663 5678 5707 5707 5709 5709 5710 5710 5709 5707 5705 5704 5702 5700 5698 5695 5694 5691 5688 5687 5687 5686 5686 5685 5685 5685 5684 5684 5684 5684 5684 5684
5705 5691 5686 5699 5714 5717 5711 5701 5687 5677 5670 5666 5663 5676 5712 5709 5708 5706 5706 5705 5704 5702 5700 5699 5696 5694 5691 5689 5687 5686 5683 5681 5681 5680 5680 5679 5679 5678 5678 5677 5678 5678 5678 5678
5701 5685 5674 5681 5691 5702 5700 5697 5689 5678 5666 5659 5660 5677 5704 5703 5702 5702 5701 5699 5697 5695 5694 5692 5689 5687 5685 5683 5681 5680 5678 5677 5676 5675 5674 5673 5672 5672 5671 5671 5671 5672 5672 5673
5703 5681 5676 5673 5680 5690 5691 5691 5686 5678 5664 5661 5668 5680 5692 5694 5694 5695 5694 5692 5691 5689 5686 5685 5682 5680 5679 5677 5675 5674 5673 5672 5671 5669 5668 5667 5666 5666 5666 5666 5666 5666 5667 5668
5695 5680 5683 5685 5692 5692 5691 5691 5687 5683 5677 5670 5675 5678 5686 5689 5689 5689 5688 5686 5685 5683 5681 5679 5676 5674 5672 5670 5669 5668 5667 5666 5665 5663 5662 5662 5661 5661 5660 5660 5661 5661 5662 5663
5681 5677 5678 5679 5687 5687 5684 5687 5686 5683 5681 5678 5678 5677 5686 5685 5684 5682 5681 5680 5679 5677 5676 5675 5672 5670 5667 5665 5664 5663 5661 5660 5659 5658 5657 5657 5656 5656 5655 5655 5656 5656 5657 5657
5669 5669 5663 5661 5673 5677 5667 5678 5679 5678 5680 5677 5671 5676 5680 5677 5677 5676 5675 5674 5673 5672 5672 5670 5667 5665 5663 5660 5659 5657 5656 5654 5654 5653 5652 5651 5651 5650 5650 5651 5651 5651 5652 5652
5663 5657 5648 5649 5659 5650 5665 5681 5681 5676 5676 5676 5675 5675 5675 5673 5672 5672 5671 5669 5667 5667 5666 5664 5663 5661 5658 5656 5654 5652 5650 5648 5648 5647 5646 5646 5646 5645 5645 5645 5646 5646 5647 5647
5661 5654 5642 5637 5640 5648 5664 5673 5672 5667 5666 5672 5669 5669 5667 5666 5665 5664 5667 5666 5663 5662 5661 5660 5658 5656 5653 5651 5649 5646 5643 5642 5641 5641 5641 5641 5641 5640 5639 5639 5641 5641 5642 5642
5651 5649 5639 5633 5636 5634 5653 5669 5672 5666 5656 5667 5665 5662 5660 5658 5650 5654 5662 5661 5658 5656 5655 5654 5652 5649 5646 5644 5642 5640 5638 5637 5637 5637 5637 5637 5637 5636 5635 5635 5636 5637 5637 5638
5639 5635 5632 5628 5629 5636 5654 5662 5664 5645 5648 5661 5660 5657 5654 5651 5651 5653 5655 5653 5651 5649 5648 5647 5644 5641 5639 5637 5635 5634 5633 5633 5633 5634 5633 5633 5632 5631 5632 5632 5632 5632 5633 5633
5630 5626 5623 5620 5621 5629 5652 5652 5646 5645 5652 5653 5652 5651 5648 5647 5648 5647 5646 5644 5643 5641 5640 5638 5635 5633 5632 5630 5628 5627 5627 5629 5629 5629 5628 5628 5627 5627 5628 5627 5627 5628 5628 5628
5623 5625 5623 5624 5627 5637 5643 5644 5645 5644 5644 5645 5644 5644 5643 5641 5640 5639 5637 5635 5634 5633 5631 5630 5628 5626 5626 5624 5623 5621 5622 5623 5623 5623 5622 5622 5622 5621 5621 5621 5621 5622 5622 5623
5622 5622 5619 5621 5628 5633 5636 5638 5639 5639 5639 5639 5639 5638 5636 5634 5633 5631 5628 5626 5625 5625 5624 5622 5620 5619 5619 5618 5617 5617 5617 5617 5617 5616 5616 5616 5615 5615 5615 5615 5616 5616 5617 5618
5615 5615 5612 5614 5622 5626 5630 5631 5632 5632 5633 5632 5632 5631 5630 5628 5625 5623 5621 5619 5618 5616 5616 5614 5613 5612 5612 5611 5611 5612 5612 5611 5610 5610 5610 5610 5610 5609 5608 5608 5609 5610 5611 5613
5608 5608 5607 5609 5617 5616 5619 5625 5626 5624 5623 5624 5623 5623 5623 5621 5619 5617 5614 5613 5611 5609 5608 5607 5607 5606 5606 5605 5605 5606 5607 5606 5604 5604 5604 5604 5603 5602 5602 5602 5604 5605 5606 5608